Year,Month,Day,Hour,Minute,Value (Times are PST for windspeed in km/hr)
2020,11,29,00,00,0.00
2020,11,29,00,01,0.00
2020,11,29,00,02,0.00
2020,11,29,00,03,0.00
2020,11,29,00,04,0.00
2020,11,29,00,05,0.00
2020,11,29,00,06,0.00
2020,11,29,00,07,0.00
2020,11,29,00,08,0.00
2020,11,29,00,09,0.00
2020,11,29,00,10,0.00
2020,11,29,00,11,0.00
2020,11,29,00,12,0.00
2020,11,29,00,13,0.00
2020,11,29,00,14,0.00
2020,11,29,00,15,0.00
2020,11,29,00,16,0.00
2020,11,29,00,17,0.00
2020,11,29,00,18,0.00
2020,11,29,00,19,0.00
2020,11,29,00,20,1.40
2020,11,29,00,21,2.50
2020,11,29,00,22,1.20
2020,11,29,00,23,1.00
2020,11,29,00,24,0.00
2020,11,29,00,25,0.00
2020,11,29,00,26,0.30
2020,11,29,00,27,0.20
2020,11,29,00,28,0.40
2020,11,29,00,29,0.00
2020,11,29,00,30,0.00
2020,11,29,00,31,0.00
2020,11,29,00,32,0.00
2020,11,29,00,33,0.00
2020,11,29,00,34,0.00
2020,11,29,00,35,0.00
2020,11,29,00,36,0.00
2020,11,29,00,37,0.00
2020,11,29,00,38,0.00
2020,11,29,00,39,0.00
2020,11,29,00,40,0.00
2020,11,29,00,41,0.00
2020,11,29,00,42,0.00
2020,11,29,00,43,0.00
2020,11,29,00,44,0.00
2020,11,29,00,45,0.00
2020,11,29,00,46,1.60
2020,11,29,00,47,0.40
2020,11,29,00,48,0.00
2020,11,29,00,49,0.00
2020,11,29,00,50,0.00
2020,11,29,00,51,0.30
2020,11,29,00,52,0.10
2020,11,29,00,53,1.70
2020,11,29,00,54,1.30
2020,11,29,00,55,0.10
2020,11,29,00,56,0.00
2020,11,29,00,57,0.00
2020,11,29,00,58,0.00
2020,11,29,00,59,0.50
2020,11,29,01,00,2.30
2020,11,29,01,01,2.50
2020,11,29,01,02,2.50
2020,11,29,01,03,2.60
2020,11,29,01,04,1.90
2020,11,29,01,05,1.90
2020,11,29,01,06,0.80
2020,11,29,01,07,0.20
2020,11,29,01,08,0.90
2020,11,29,01,09,1.30
2020,11,29,01,10,0.40
2020,11,29,01,11,0.00
2020,11,29,01,12,0.80
2020,11,29,01,13,0.00
2020,11,29,01,14,0.50
2020,11,29,01,15,0.00
2020,11,29,01,16,0.00
2020,11,29,01,17,0.00
2020,11,29,01,18,0.00
2020,11,29,01,19,0.00
2020,11,29,01,20,0.00
2020,11,29,01,21,0.00
2020,11,29,01,22,0.00
2020,11,29,01,23,0.00
2020,11,29,01,24,0.00
2020,11,29,01,25,0.00
2020,11,29,01,26,0.00
2020,11,29,01,27,0.00
2020,11,29,01,28,0.00
2020,11,29,01,29,0.00
2020,11,29,01,30,0.00
2020,11,29,01,31,0.00
2020,11,29,01,32,0.00
2020,11,29,01,33,0.00
2020,11,29,01,34,0.00
2020,11,29,01,35,0.40
2020,11,29,01,36,0.00
2020,11,29,01,37,0.00
2020,11,29,01,38,0.00
2020,11,29,01,39,0.00
2020,11,29,01,40,0.00
2020,11,29,01,41,0.00
2020,11,29,01,42,0.00
2020,11,29,01,43,0.20
2020,11,29,01,44,1.10
2020,11,29,01,45,0.80
2020,11,29,01,46,0.60
2020,11,29,01,47,0.00
2020,11,29,01,48,0.60
2020,11,29,01,49,1.10
2020,11,29,01,50,2.70
2020,11,29,01,51,4.30
2020,11,29,01,52,2.50
2020,11,29,01,53,3.10
2020,11,29,01,54,1.50
2020,11,29,01,55,3.90
2020,11,29,01,56,2.10
2020,11,29,01,57,0.20
2020,11,29,01,58,0.50
2020,11,29,01,59,3.40
2020,11,29,02,00,5.60
2020,11,29,02,01,3.60
2020,11,29,02,02,4.10
2020,11,29,02,03,5.30
2020,11,29,02,04,5.00
2020,11,29,02,05,5.20
2020,11,29,02,06,4.50
2020,11,29,02,07,5.20
2020,11,29,02,08,5.60
2020,11,29,02,09,6.80
2020,11,29,02,10,5.30
2020,11,29,02,11,4.10
2020,11,29,02,12,3.80
2020,11,29,02,13,3.40
2020,11,29,02,14,4.70
2020,11,29,02,15,4.70
2020,11,29,02,16,3.30
2020,11,29,02,17,4.10
2020,11,29,02,18,3.90
2020,11,29,02,19,1.90
2020,11,29,02,20,1.10
2020,11,29,02,21,0.50
2020,11,29,02,22,1.30
2020,11,29,02,23,2.30
2020,11,29,02,24,0.40
2020,11,29,02,25,0.30
2020,11,29,02,26,0.60
2020,11,29,02,27,3.60
2020,11,29,02,28,2.30
2020,11,29,02,29,2.10
2020,11,29,02,30,0.00
2020,11,29,02,31,0.00
2020,11,29,02,32,0.00
2020,11,29,02,33,0.00
2020,11,29,02,34,0.00
2020,11,29,02,35,0.00
2020,11,29,02,36,0.40
2020,11,29,02,37,2.80
2020,11,29,02,38,0.50
2020,11,29,02,39,1.10
2020,11,29,02,40,2.60
2020,11,29,02,41,2.40
2020,11,29,02,42,3.60
2020,11,29,02,43,5.10
2020,11,29,02,44,4.80
2020,11,29,02,45,5.10
2020,11,29,02,46,4.70
2020,11,29,02,47,4.70
2020,11,29,02,48,5.50
2020,11,29,02,49,4.40
2020,11,29,02,50,3.30
2020,11,29,02,51,2.90
2020,11,29,02,52,0.60
2020,11,29,02,53,0.50
2020,11,29,02,54,0.20
2020,11,29,02,55,0.00
2020,11,29,02,56,0.00
2020,11,29,02,57,0.20
2020,11,29,02,58,2.10
2020,11,29,02,59,1.80
2020,11,29,03,00,1.30
2020,11,29,03,01,2.00
2020,11,29,03,02,2.00
2020,11,29,03,03,0.00
2020,11,29,03,04,0.00
2020,11,29,03,05,0.30
2020,11,29,03,06,0.30
2020,11,29,03,07,0.00
2020,11,29,03,08,0.00
2020,11,29,03,09,1.90
2020,11,29,03,10,0.90
2020,11,29,03,11,0.00
2020,11,29,03,12,0.00
2020,11,29,03,13,0.00
2020,11,29,03,14,0.00
2020,11,29,03,15,0.00
2020,11,29,03,16,0.00
2020,11,29,03,17,0.00
2020,11,29,03,18,0.00
2020,11,29,03,19,0.00
2020,11,29,03,20,0.00
2020,11,29,03,21,0.00
2020,11,29,03,22,0.20
2020,11,29,03,23,0.50
2020,11,29,03,24,0.00
2020,11,29,03,25,0.00
2020,11,29,03,26,0.00
2020,11,29,03,27,0.20
2020,11,29,03,28,1.00
2020,11,29,03,29,0.00
2020,11,29,03,30,0.00
2020,11,29,03,31,0.00
2020,11,29,03,32,0.00
2020,11,29,03,33,0.00
2020,11,29,03,34,0.00
2020,11,29,03,35,0.00
2020,11,29,03,36,0.00
2020,11,29,03,37,0.20
2020,11,29,03,38,2.60
2020,11,29,03,39,1.00
2020,11,29,03,40,1.00
2020,11,29,03,41,1.00
2020,11,29,03,42,0.90
2020,11,29,03,43,3.90
2020,11,29,03,44,5.10
2020,11,29,03,45,4.30
2020,11,29,03,46,4.10
2020,11,29,03,47,3.90
2020,11,29,03,48,4.30
2020,11,29,03,49,4.00
2020,11,29,03,50,4.10
2020,11,29,03,51,2.40
2020,11,29,03,52,1.00
2020,11,29,03,53,0.60
2020,11,29,03,54,0.90
2020,11,29,03,55,2.50
2020,11,29,03,56,4.30
2020,11,29,03,57,4.30
2020,11,29,03,58,3.40
2020,11,29,03,59,3.20
2020,11,29,04,00,4.20
2020,11,29,04,01,4.30
2020,11,29,04,02,4.80
2020,11,29,04,03,4.60
2020,11,29,04,04,3.50
2020,11,29,04,05,4.30
2020,11,29,04,06,3.90
2020,11,29,04,07,3.80
2020,11,29,04,08,3.60
2020,11,29,04,09,4.90
2020,11,29,04,10,2.00
2020,11,29,04,11,2.70
2020,11,29,04,12,2.30
2020,11,29,04,13,3.40
2020,11,29,04,14,4.00
2020,11,29,04,15,3.00
2020,11,29,04,16,2.00
2020,11,29,04,17,0.50
2020,11,29,04,18,1.50
2020,11,29,04,19,3.10
2020,11,29,04,20,6.60
2020,11,29,04,21,4.60
2020,11,29,04,22,3.40
2020,11,29,04,23,4.90
2020,11,29,04,24,2.30
2020,11,29,04,25,4.20
2020,11,29,04,26,4.30
2020,11,29,04,27,2.20
2020,11,29,04,28,5.70
2020,11,29,04,29,3.50
2020,11,29,04,30,4.30
2020,11,29,04,31,9.20
2020,11,29,04,32,9.60
2020,11,29,04,33,5.60
2020,11,29,04,34,3.10
2020,11,29,04,35,6.70
2020,11,29,04,36,4.40
2020,11,29,04,37,4.70
2020,11,29,04,38,2.60
2020,11,29,04,39,4.70
2020,11,29,04,40,5.10
2020,11,29,04,41,3.50
2020,11,29,04,42,1.50
2020,11,29,04,43,4.60
2020,11,29,04,44,2.70
2020,11,29,04,45,7.60
2020,11,29,04,46,2.60
2020,11,29,04,47,2.30
2020,11,29,04,48,1.40
2020,11,29,04,49,4.10
2020,11,29,04,50,2.40
2020,11,29,04,51,1.90
2020,11,29,04,52,2.70
2020,11,29,04,53,3.40
2020,11,29,04,54,3.50
2020,11,29,04,55,3.80
2020,11,29,04,56,4.10
2020,11,29,04,57,2.90
2020,11,29,04,58,4.80
2020,11,29,04,59,3.90
2020,11,29,05,00,2.90
2020,11,29,05,01,3.10
2020,11,29,05,02,2.00
2020,11,29,05,03,1.70
2020,11,29,05,04,7.00
2020,11,29,05,05,4.40
2020,11,29,05,06,3.50
2020,11,29,05,07,1.80
2020,11,29,05,08,3.40
2020,11,29,05,09,5.20
2020,11,29,05,10,4.90
2020,11,29,05,11,5.30
2020,11,29,05,12,6.30
2020,11,29,05,13,6.70
2020,11,29,05,14,2.90
2020,11,29,05,15,4.00
2020,11,29,05,16,4.30
2020,11,29,05,17,4.80
2020,11,29,05,18,4.90
2020,11,29,05,19,3.30
2020,11,29,05,20,0.60
2020,11,29,05,21,1.50
2020,11,29,05,22,1.60
2020,11,29,05,23,2.90
2020,11,29,05,24,2.40
2020,11,29,05,25,4.90
2020,11,29,05,26,3.50
2020,11,29,05,27,7.00
2020,11,29,05,28,6.60
2020,11,29,05,29,4.80
2020,11,29,05,30,7.70
2020,11,29,05,31,7.20
2020,11,29,05,32,4.60
2020,11,29,05,33,6.50
2020,11,29,05,34,6.70
2020,11,29,05,35,3.10
2020,11,29,05,36,2.00
2020,11,29,05,37,4.40
2020,11,29,05,38,2.30
2020,11,29,05,39,3.20
2020,11,29,05,40,3.60
2020,11,29,05,41,4.60
2020,11,29,05,42,3.60
2020,11,29,05,43,2.60
2020,11,29,05,44,3.20
2020,11,29,05,45,2.80
2020,11,29,05,46,1.70
2020,11,29,05,47,2.70
2020,11,29,05,48,1.50
2020,11,29,05,49,1.90
2020,11,29,05,50,0.50
2020,11,29,05,51,2.40
2020,11,29,05,52,4.40
2020,11,29,05,53,3.50
2020,11,29,05,54,4.30
2020,11,29,05,55,6.00
2020,11,29,05,56,3.70
2020,11,29,05,57,5.50
2020,11,29,05,58,5.20
2020,11,29,05,59,4.50
2020,11,29,06,00,4.00
2020,11,29,06,01,3.60
2020,11,29,06,02,1.40
2020,11,29,06,03,2.40
2020,11,29,06,04,0.20
2020,11,29,06,05,1.50
2020,11,29,06,06,0.40
2020,11,29,06,07,4.70
2020,11,29,06,08,2.70
2020,11,29,06,09,4.80
2020,11,29,06,10,3.90
2020,11,29,06,11,1.10
2020,11,29,06,12,0.90
2020,11,29,06,13,1.10
2020,11,29,06,14,2.60
2020,11,29,06,15,2.70
2020,11,29,06,16,1.90
2020,11,29,06,17,1.40
2020,11,29,06,18,3.10
2020,11,29,06,19,2.80
2020,11,29,06,20,4.40
2020,11,29,06,21,4.30
2020,11,29,06,22,6.00
2020,11,29,06,23,5.60
2020,11,29,06,24,7.70
2020,11,29,06,25,5.00
2020,11,29,06,26,5.80
2020,11,29,06,27,3.90
2020,11,29,06,28,5.30
2020,11,29,06,29,3.90
2020,11,29,06,30,4.60
2020,11,29,06,31,4.00
2020,11,29,06,32,4.90
2020,11,29,06,33,3.20
2020,11,29,06,34,4.60
2020,11,29,06,35,5.00
2020,11,29,06,36,5.20
2020,11,29,06,37,5.40
2020,11,29,06,38,2.90
2020,11,29,06,39,3.20
2020,11,29,06,40,6.40
2020,11,29,06,41,6.20
2020,11,29,06,42,6.40
2020,11,29,06,43,3.10
2020,11,29,06,44,4.50
2020,11,29,06,45,4.30
2020,11,29,06,46,1.90
2020,11,29,06,47,2.30
2020,11,29,06,48,2.40
2020,11,29,06,49,3.20
2020,11,29,06,50,5.00
2020,11,29,06,51,5.20
2020,11,29,06,52,3.50
2020,11,29,06,53,7.60
2020,11,29,06,54,5.30
2020,11,29,06,55,4.20
2020,11,29,06,56,1.90
2020,11,29,06,57,0.00
2020,11,29,06,58,5.10
2020,11,29,06,59,7.80
2020,11,29,07,00,3.00
2020,11,29,07,01,6.40
2020,11,29,07,02,5.00
2020,11,29,07,03,3.80
2020,11,29,07,04,6.00
2020,11,29,07,05,6.10
2020,11,29,07,06,4.70
2020,11,29,07,07,6.20
2020,11,29,07,08,5.10
2020,11,29,07,09,6.00
2020,11,29,07,10,4.80
2020,11,29,07,11,4.50
2020,11,29,07,12,4.00
2020,11,29,07,13,7.00
2020,11,29,07,14,4.60
2020,11,29,07,15,3.90
2020,11,29,07,16,7.50
2020,11,29,07,17,6.60
2020,11,29,07,18,1.70
2020,11,29,07,19,3.50
2020,11,29,07,20,5.40
2020,11,29,07,21,4.70
2020,11,29,07,22,2.30
2020,11,29,07,23,2.60
2020,11,29,07,24,4.20
2020,11,29,07,25,4.60
2020,11,29,07,26,3.90
2020,11,29,07,27,3.20
2020,11,29,07,28,5.90
2020,11,29,07,29,7.20
2020,11,29,07,30,5.60
2020,11,29,07,31,4.10
2020,11,29,07,32,2.30
2020,11,29,07,33,7.70
2020,11,29,07,34,6.80
2020,11,29,07,35,2.50
2020,11,29,07,36,4.40
2020,11,29,07,37,3.60
2020,11,29,07,38,0.60
2020,11,29,07,39,3.90
2020,11,29,07,40,4.30
2020,11,29,07,41,3.50
2020,11,29,07,42,1.10
2020,11,29,07,43,3.70
2020,11,29,07,44,2.30
2020,11,29,07,45,2.00
2020,11,29,07,46,2.30
2020,11,29,07,47,0.10
2020,11,29,07,48,0.60
2020,11,29,07,49,0.00
2020,11,29,07,50,0.00
2020,11,29,07,51,0.00
2020,11,29,07,52,0.00
2020,11,29,07,53,0.00
2020,11,29,07,54,0.00
2020,11,29,07,55,0.00
2020,11,29,07,56,0.00
2020,11,29,07,57,0.00
2020,11,29,07,58,0.00
2020,11,29,07,59,0.00
2020,11,29,08,00,0.00
2020,11,29,08,01,0.00
2020,11,29,08,02,2.50
2020,11,29,08,03,2.10
2020,11,29,08,04,1.80
2020,11,29,08,05,0.00
2020,11,29,08,06,0.10
2020,11,29,08,07,1.70
2020,11,29,08,08,1.60
2020,11,29,08,09,4.20
2020,11,29,08,10,3.70
2020,11,29,08,11,3.80
2020,11,29,08,12,7.90
2020,11,29,08,13,5.20
2020,11,29,08,14,4.50
2020,11,29,08,15,3.70
2020,11,29,08,16,2.70
2020,11,29,08,17,2.80
2020,11,29,08,18,2.60
2020,11,29,08,19,4.10
2020,11,29,08,20,2.70
2020,11,29,08,21,7.20
2020,11,29,08,22,4.00
2020,11,29,08,23,1.80
2020,11,29,08,24,2.90
2020,11,29,08,25,4.50
2020,11,29,08,26,1.00
2020,11,29,08,27,1.40
2020,11,29,08,28,3.20
2020,11,29,08,29,2.50
2020,11,29,08,30,2.80
2020,11,29,08,31,0.40
2020,11,29,08,32,2.20
2020,11,29,08,33,0.00
2020,11,29,08,34,0.40
2020,11,29,08,35,1.50
2020,11,29,08,36,2.10
2020,11,29,08,37,1.40
2020,11,29,08,38,0.00
2020,11,29,08,39,0.00
2020,11,29,08,40,0.00
2020,11,29,08,41,0.00
2020,11,29,08,42,0.00
2020,11,29,08,43,0.00
2020,11,29,08,44,0.00
2020,11,29,08,45,1.10
2020,11,29,08,46,1.60
2020,11,29,08,47,0.20
2020,11,29,08,48,2.60
2020,11,29,08,49,5.80
2020,11,29,08,50,5.10
2020,11,29,08,51,5.10
2020,11,29,08,52,8.30
2020,11,29,08,53,9.30
2020,11,29,08,54,8.40
2020,11,29,08,55,7.10
2020,11,29,08,56,7.00
2020,11,29,08,57,6.60
2020,11,29,08,58,8.90
2020,11,29,08,59,5.80
2020,11,29,09,00,9.10
2020,11,29,09,01,7.20
2020,11,29,09,02,3.80
2020,11,29,09,03,2.30
2020,11,29,09,04,1.20
2020,11,29,09,05,2.50
2020,11,29,09,06,1.40
2020,11,29,09,07,0.70
2020,11,29,09,08,2.90
2020,11,29,09,09,0.80
2020,11,29,09,10,3.70
2020,11,29,09,11,4.70
2020,11,29,09,12,2.50
2020,11,29,09,13,2.40
2020,11,29,09,14,2.80
2020,11,29,09,15,3.90
2020,11,29,09,16,3.40
2020,11,29,09,17,1.60
2020,11,29,09,18,2.20
2020,11,29,09,19,3.70
2020,11,29,09,20,2.80
2020,11,29,09,21,1.30
2020,11,29,09,22,3.90
2020,11,29,09,23,8.50
2020,11,29,09,24,9.60
2020,11,29,09,25,6.60
2020,11,29,09,26,1.40
2020,11,29,09,27,4.40
2020,11,29,09,28,2.90
2020,11,29,09,29,4.80
2020,11,29,09,30,4.70
2020,11,29,09,31,3.60
2020,11,29,09,32,6.40
2020,11,29,09,33,2.30
2020,11,29,09,34,2.50
2020,11,29,09,35,5.20
2020,11,29,09,36,2.60
2020,11,29,09,37,2.00
2020,11,29,09,38,3.30
2020,11,29,09,39,5.30
2020,11,29,09,40,3.50
2020,11,29,09,41,2.90
2020,11,29,09,42,5.10
2020,11,29,09,43,5.20
2020,11,29,09,44,6.40
2020,11,29,09,45,5.20
2020,11,29,09,46,6.30
2020,11,29,09,47,6.10
2020,11,29,09,48,5.70
2020,11,29,09,49,4.30
2020,11,29,09,50,2.70
2020,11,29,09,51,3.70
2020,11,29,09,52,3.40
2020,11,29,09,53,3.30
2020,11,29,09,54,2.30
2020,11,29,09,55,3.20
2020,11,29,09,56,3.80
2020,11,29,09,57,4.10
2020,11,29,09,58,7.20
2020,11,29,09,59,4.70
2020,11,29,10,00,7.40
2020,11,29,10,01,9.10
2020,11,29,10,02,5.50
2020,11,29,10,03,2.10
2020,11,29,10,04,3.00
2020,11,29,10,05,3.80
2020,11,29,10,06,3.90
2020,11,29,10,07,3.80
2020,11,29,10,08,1.50
2020,11,29,10,09,1.90
2020,11,29,10,10,2.50
2020,11,29,10,11,6.20
2020,11,29,10,12,2.90
2020,11,29,10,13,4.70
2020,11,29,10,14,6.80
2020,11,29,10,15,6.90
2020,11,29,10,16,5.90
2020,11,29,10,17,4.30
2020,11,29,10,18,5.70
2020,11,29,10,19,5.10
2020,11,29,10,20,10.90
2020,11,29,10,21,8.10
2020,11,29,10,22,6.50
2020,11,29,10,23,6.00
2020,11,29,10,24,6.10
2020,11,29,10,25,2.60
2020,11,29,10,26,1.30
2020,11,29,10,27,3.80
2020,11,29,10,28,3.70
2020,11,29,10,29,5.80
2020,11,29,10,30,6.00
2020,11,29,10,31,2.40
2020,11,29,10,32,1.20
2020,11,29,10,33,3.40
2020,11,29,10,34,4.00
2020,11,29,10,35,3.70
2020,11,29,10,36,3.60
2020,11,29,10,37,6.70
2020,11,29,10,38,1.90
2020,11,29,10,39,2.70
2020,11,29,10,40,1.90
2020,11,29,10,41,3.10
2020,11,29,10,42,6.80
2020,11,29,10,43,6.00
2020,11,29,10,44,2.50
2020,11,29,10,45,3.10
2020,11,29,10,46,4.30
2020,11,29,10,47,9.10
2020,11,29,10,48,6.40
2020,11,29,10,49,7.10
2020,11,29,10,50,4.50
2020,11,29,10,51,4.80
2020,11,29,10,52,2.40
2020,11,29,10,53,5.20
2020,11,29,10,54,4.50
2020,11,29,10,55,5.40
2020,11,29,10,56,7.10
2020,11,29,10,57,7.50
2020,11,29,10,58,8.80
2020,11,29,10,59,6.10
2020,11,29,11,00,6.70
2020,11,29,11,01,6.20
2020,11,29,11,02,7.30
2020,11,29,11,03,6.10
2020,11,29,11,04,4.70
2020,11,29,11,05,6.20
2020,11,29,11,06,8.30
2020,11,29,11,07,8.90
2020,11,29,11,08,7.30
2020,11,29,11,09,5.10
2020,11,29,11,10,5.10
2020,11,29,11,11,3.60
2020,11,29,11,12,8.20
2020,11,29,11,13,7.00
2020,11,29,11,14,7.30
2020,11,29,11,15,6.50
2020,11,29,11,16,5.40
2020,11,29,11,17,5.30
2020,11,29,11,18,4.30
2020,11,29,11,19,7.50
2020,11,29,11,20,6.60
2020,11,29,11,21,6.80
2020,11,29,11,22,4.50
2020,11,29,11,23,4.30
2020,11,29,11,24,4.90
2020,11,29,11,25,6.10
2020,11,29,11,26,6.40
2020,11,29,11,27,6.50
2020,11,29,11,28,3.70
2020,11,29,11,29,3.10
2020,11,29,11,30,3.90
2020,11,29,11,31,8.00
2020,11,29,11,32,4.60
2020,11,29,11,33,7.70
2020,11,29,11,34,4.20
2020,11,29,11,35,3.80
2020,11,29,11,36,1.40
2020,11,29,11,37,5.90
2020,11,29,11,38,9.40
2020,11,29,11,39,10.40
2020,11,29,11,40,3.50
2020,11,29,11,41,4.30
2020,11,29,11,42,5.10
2020,11,29,11,43,5.90
2020,11,29,11,44,6.40
2020,11,29,11,45,5.30
2020,11,29,11,46,4.20
2020,11,29,11,47,3.00
2020,11,29,11,48,2.60
2020,11,29,11,49,6.00
2020,11,29,11,50,6.00
2020,11,29,11,51,3.80
2020,11,29,11,52,7.90
2020,11,29,11,53,12.60
2020,11,29,11,54,12.30
2020,11,29,11,55,6.80
2020,11,29,11,56,5.20
2020,11,29,11,57,6.60
2020,11,29,11,58,8.90
2020,11,29,11,59,5.30
2020,11,29,12,00,2.80
2020,11,29,12,01,6.70
2020,11,29,12,02,6.40
2020,11,29,12,03,7.20
2020,11,29,12,04,9.60
2020,11,29,12,05,8.00
2020,11,29,12,06,5.40
2020,11,29,12,07,6.80
2020,11,29,12,08,4.80
2020,11,29,12,09,2.80
2020,11,29,12,10,4.30
2020,11,29,12,11,6.20
2020,11,29,12,12,6.00
2020,11,29,12,13,5.60
2020,11,29,12,14,5.60
2020,11,29,12,15,8.30
2020,11,29,12,16,6.70
2020,11,29,12,17,7.50
2020,11,29,12,18,5.40
2020,11,29,12,19,8.90
2020,11,29,12,20,6.70
2020,11,29,12,21,8.30
2020,11,29,12,22,6.60
2020,11,29,12,23,7.00
2020,11,29,12,24,8.40
2020,11,29,12,25,10.70
2020,11,29,12,26,9.00
2020,11,29,12,27,9.00
2020,11,29,12,28,9.60
2020,11,29,12,29,10.10
2020,11,29,12,30,6.80
2020,11,29,12,31,6.80
2020,11,29,12,32,4.60
2020,11,29,12,33,7.70
2020,11,29,12,34,7.90
2020,11,29,12,35,5.20
2020,11,29,12,36,9.10
2020,11,29,12,37,8.10
2020,11,29,12,38,8.50
2020,11,29,12,39,10.50
2020,11,29,12,40,7.90
2020,11,29,12,41,12.40
2020,11,29,12,42,16.00
2020,11,29,12,43,13.20
2020,11,29,12,44,13.60
2020,11,29,12,45,9.00
2020,11,29,12,46,8.70
2020,11,29,12,47,8.90
2020,11,29,12,48,7.90
2020,11,29,12,49,15.00
2020,11,29,12,50,14.40
2020,11,29,12,51,8.60
2020,11,29,12,52,9.00
2020,11,29,12,53,11.60
2020,11,29,12,54,10.90
2020,11,29,12,55,7.60
2020,11,29,12,56,5.70
2020,11,29,12,57,12.00
2020,11,29,12,58,11.70
2020,11,29,12,59,11.30
2020,11,29,13,00,9.10
2020,11,29,13,01,10.50
2020,11,29,13,02,6.00
2020,11,29,13,03,12.60
2020,11,29,13,04,8.10
2020,11,29,13,05,12.50
2020,11,29,13,06,12.50
2020,11,29,13,07,14.30
2020,11,29,13,08,15.80
2020,11,29,13,09,12.80
2020,11,29,13,10,13.70
2020,11,29,13,11,13.20
2020,11,29,13,12,13.50
2020,11,29,13,13,12.60
2020,11,29,13,14,13.40
2020,11,29,13,15,9.20
2020,11,29,13,16,12.60
2020,11,29,13,17,11.20
2020,11,29,13,18,10.50
2020,11,29,13,19,7.20
2020,11,29,13,20,8.10
2020,11,29,13,21,10.00
2020,11,29,13,22,9.40
2020,11,29,13,23,8.00
2020,11,29,13,24,12.60
2020,11,29,13,25,13.40
2020,11,29,13,26,12.30
2020,11,29,13,27,12.60
2020,11,29,13,28,9.60
2020,11,29,13,29,9.80
2020,11,29,13,30,12.80
2020,11,29,13,31,15.70
2020,11,29,13,32,17.50
2020,11,29,13,33,14.80
2020,11,29,13,34,13.10
2020,11,29,13,35,11.80
2020,11,29,13,36,11.50
2020,11,29,13,37,11.10
2020,11,29,13,38,13.90
2020,11,29,13,39,10.20
2020,11,29,13,40,11.40
2020,11,29,13,41,11.00
2020,11,29,13,42,10.40
2020,11,29,13,43,8.00
2020,11,29,13,44,9.30
2020,11,29,13,45,10.90
2020,11,29,13,46,12.80
2020,11,29,13,47,12.10
2020,11,29,13,48,10.80
2020,11,29,13,49,9.80
2020,11,29,13,50,7.60
2020,11,29,13,51,11.00
2020,11,29,13,52,10.10
2020,11,29,13,53,8.20
2020,11,29,13,54,12.70
2020,11,29,13,55,12.70
2020,11,29,13,56,10.50
2020,11,29,13,57,5.30
2020,11,29,13,58,5.70
2020,11,29,13,59,9.00
2020,11,29,14,00,8.60
2020,11,29,14,01,10.20
2020,11,29,14,02,4.70
2020,11,29,14,03,10.00
2020,11,29,14,04,9.60
2020,11,29,14,05,13.10
2020,11,29,14,06,10.50
2020,11,29,14,07,12.40
2020,11,29,14,08,9.90
2020,11,29,14,09,7.60
2020,11,29,14,10,9.80
2020,11,29,14,11,9.20
2020,11,29,14,12,10.30
2020,11,29,14,13,6.20
2020,11,29,14,14,7.60
2020,11,29,14,15,8.50
2020,11,29,14,16,10.50
2020,11,29,14,17,10.90
2020,11,29,14,18,7.80
2020,11,29,14,19,10.20
2020,11,29,14,20,12.20
2020,11,29,14,21,11.20
2020,11,29,14,22,7.00
2020,11,29,14,23,12.80
2020,11,29,14,24,15.90
2020,11,29,14,25,13.10
2020,11,29,14,26,11.80
2020,11,29,14,27,12.60
2020,11,29,14,28,10.10
2020,11,29,14,29,9.00
2020,11,29,14,30,8.40
2020,11,29,14,31,10.10
2020,11,29,14,32,10.60
2020,11,29,14,33,10.00
2020,11,29,14,34,6.70
2020,11,29,14,35,9.00
2020,11,29,14,36,7.80
2020,11,29,14,37,8.90
2020,11,29,14,38,6.60
2020,11,29,14,39,7.70
2020,11,29,14,40,7.50
2020,11,29,14,41,6.20
2020,11,29,14,42,6.40
2020,11,29,14,43,6.10
2020,11,29,14,44,5.30
2020,11,29,14,45,5.30
2020,11,29,14,46,7.60
2020,11,29,14,47,6.30
2020,11,29,14,48,5.60
2020,11,29,14,49,12.50
2020,11,29,14,50,10.60
2020,11,29,14,51,9.70
2020,11,29,14,52,3.10
2020,11,29,14,53,2.70
2020,11,29,14,54,5.50
2020,11,29,14,55,8.10
2020,11,29,14,56,9.20
2020,11,29,14,57,10.80
2020,11,29,14,58,8.40
2020,11,29,14,59,9.30
2020,11,29,15,00,11.90
2020,11,29,15,01,12.20
2020,11,29,15,02,8.80
2020,11,29,15,03,12.20
2020,11,29,15,04,12.30
2020,11,29,15,05,7.00
2020,11,29,15,06,10.50
2020,11,29,15,07,14.80
2020,11,29,15,08,15.00
2020,11,29,15,09,15.90
2020,11,29,15,10,16.20
2020,11,29,15,11,12.80
2020,11,29,15,12,14.00
2020,11,29,15,13,11.20
2020,11,29,15,14,17.40
2020,11,29,15,15,14.20
2020,11,29,15,16,15.00
2020,11,29,15,17,12.30
2020,11,29,15,18,13.40
2020,11,29,15,19,10.50
2020,11,29,15,20,10.30
2020,11,29,15,21,11.90
2020,11,29,15,22,13.30
2020,11,29,15,23,10.50
2020,11,29,15,24,11.90
2020,11,29,15,25,12.80
2020,11,29,15,26,10.30
2020,11,29,15,27,10.90
2020,11,29,15,28,4.80
2020,11,29,15,29,5.60
2020,11,29,15,30,5.50
2020,11,29,15,31,4.30
2020,11,29,15,32,3.70
2020,11,29,15,33,5.60
2020,11,29,15,34,3.60
2020,11,29,15,35,7.20
2020,11,29,15,36,11.30
2020,11,29,15,37,10.90
2020,11,29,15,38,4.20
2020,11,29,15,39,7.40
2020,11,29,15,40,6.50
2020,11,29,15,41,7.10
2020,11,29,15,42,5.60
2020,11,29,15,43,7.50
2020,11,29,15,44,5.60
2020,11,29,15,45,6.50
2020,11,29,15,46,3.60
2020,11,29,15,47,4.20
2020,11,29,15,48,6.50
2020,11,29,15,49,8.50
2020,11,29,15,50,9.70
2020,11,29,15,51,8.00
2020,11,29,15,52,10.80
2020,11,29,15,53,11.30
2020,11,29,15,54,9.30
2020,11,29,15,55,10.20
2020,11,29,15,56,7.70
2020,11,29,15,57,9.50
2020,11,29,15,58,9.20
2020,11,29,15,59,8.40
2020,11,29,16,00,7.50
2020,11,29,16,01,7.00
2020,11,29,16,02,3.80
2020,11,29,16,03,3.40
2020,11,29,16,04,4.20
2020,11,29,16,05,10.70
2020,11,29,16,06,4.00
2020,11,29,16,07,3.10
2020,11,29,16,08,4.70
2020,11,29,16,09,4.00
2020,11,29,16,10,2.40
2020,11,29,16,11,5.50
2020,11,29,16,12,4.70
2020,11,29,16,13,1.10
2020,11,29,16,14,1.50
2020,11,29,16,15,1.90
2020,11,29,16,16,3.40
2020,11,29,16,17,7.10
2020,11,29,16,18,7.00
2020,11,29,16,19,7.40
2020,11,29,16,20,5.30
2020,11,29,16,21,7.00
2020,11,29,16,22,8.90
2020,11,29,16,23,7.50
2020,11,29,16,24,6.40
2020,11,29,16,25,7.10
2020,11,29,16,26,3.60
2020,11,29,16,27,8.90
2020,11,29,16,28,10.60
2020,11,29,16,29,8.60
2020,11,29,16,30,8.80
2020,11,29,16,31,9.10
2020,11,29,16,32,9.00
2020,11,29,16,33,10.50
2020,11,29,16,34,9.70
2020,11,29,16,35,10.80
2020,11,29,16,36,9.00
2020,11,29,16,37,9.90
2020,11,29,16,38,11.00
2020,11,29,16,39,9.80
2020,11,29,16,40,8.90
2020,11,29,16,41,8.00
2020,11,29,16,42,5.70
2020,11,29,16,43,8.60
2020,11,29,16,44,7.90
2020,11,29,16,45,4.70
2020,11,29,16,46,4.10
2020,11,29,16,47,4.10
2020,11,29,16,48,6.80
2020,11,29,16,49,6.00
2020,11,29,16,50,4.30
2020,11,29,16,51,5.90
2020,11,29,16,52,4.00
2020,11,29,16,53,2.80
2020,11,29,16,54,3.30
2020,11,29,16,55,5.90
2020,11,29,16,56,4.70
2020,11,29,16,57,4.80
2020,11,29,16,58,6.40
2020,11,29,16,59,7.20
2020,11,29,17,00,7.50
2020,11,29,17,01,7.30
2020,11,29,17,02,8.10
2020,11,29,17,03,9.10
2020,11,29,17,04,10.10
2020,11,29,17,05,11.60
2020,11,29,17,06,11.80
2020,11,29,17,07,12.20
2020,11,29,17,08,12.10
2020,11,29,17,09,11.90
2020,11,29,17,10,10.70
2020,11,29,17,11,9.10
2020,11,29,17,12,9.20
2020,11,29,17,13,5.80
2020,11,29,17,14,5.50
2020,11,29,17,15,7.70
2020,11,29,17,16,9.50
2020,11,29,17,17,10.90
2020,11,29,17,18,11.70
2020,11,29,17,19,9.20
2020,11,29,17,20,10.40
2020,11,29,17,21,9.20
2020,11,29,17,22,9.60
2020,11,29,17,23,10.50
2020,11,29,17,24,9.40
2020,11,29,17,25,7.00
2020,11,29,17,26,6.90
2020,11,29,17,27,10.30
2020,11,29,17,28,10.90
2020,11,29,17,29,8.00
2020,11,29,17,30,9.90
2020,11,29,17,31,10.50
2020,11,29,17,32,13.30
2020,11,29,17,33,15.30
2020,11,29,17,34,13.00
2020,11,29,17,35,10.00
2020,11,29,17,36,11.30
2020,11,29,17,37,13.30
2020,11,29,17,38,13.50
2020,11,29,17,39,10.10
2020,11,29,17,40,8.80
2020,11,29,17,41,10.90
2020,11,29,17,42,8.10
2020,11,29,17,43,8.90
2020,11,29,17,44,7.80
2020,11,29,17,45,6.80
2020,11,29,17,46,6.80
2020,11,29,17,47,6.20
2020,11,29,17,48,7.30
2020,11,29,17,49,3.50
2020,11,29,17,50,3.10
2020,11,29,17,51,4.10
2020,11,29,17,52,4.50
2020,11,29,17,53,3.40
2020,11,29,17,54,3.60
2020,11,29,17,55,4.40
2020,11,29,17,56,6.40
2020,11,29,17,57,5.70
2020,11,29,17,58,7.00
2020,11,29,17,59,6.00
2020,11,29,18,00,6.70